Weather History for KOZW - September, 2012

Change the Weather History Date:

Thursday, September 20, 2012

  Actual Average Record
Temperature  
Mean Temperature 61 °F -  
Max Temperature 72 °F 70 °F 87 °F (1998)
Min Temperature 50 °F 49 °F 42 °F (1996)
Degree Days  
Heating Degree Days 4    
Growing Degree Days 11 (Base 50)    
Moisture  
Dew Point 38 °F    
Average Humidity 43    
Maximum Humidity 64    
Minimum Humidity 25    
Precipitation  
Precipitation 0.00 in - - ()
Sea Level Pressure  
Sea Level Pressure 29.88 in    
Wind  
Wind Speed 10 mph (SW)    
Max Wind Speed 16 mph    
Max Gust Speed 24 mph    
Visibility 10 miles    
Events Rain    
Averages and records for this station are not official NWS values.
T = Trace of Precipitation, MM = Missing Value Source: NWS Daily Summary

Daily Weather History Graph

Daily Weather History Graph

Search for Another Location

Airport or City:

Trip Planner

Search our weather history database for the weather conditions in past years. The results will help you decide how hot, cold, wet, or windy it might be!

Date:

Astronomy

Sep. 20, 2012 Rise Set
Actual Time 7:21 AM EDT 7:35 PM EDT
Civil Twilight 6:53 AM EDT 8:04 PM EDT
Nautical Twilight 6:20 AM EDT 8:37 PM EDT
Astronomical Twilight 5:46 AM EDT 9:10 PM EDT
Moon 12:46 PM EDT (9/20) 10:29 PM EDT (9/20)
Length of Visible Light 13h 10m
Length of Day
12h 14m
Waxing Crescent, 26% of the Moon is Illuminated
Sep 20
Waxing Crescent
Sep 22
First Quarter
Sep 29
Full
Oct 8
Last Quarter
Oct 15
New

Hourly Weather History & Observations

Time (EDT) Temp. Dew Point Humidity Pressure Visibility Wind Dir Wind Speed Gust Speed Precip Events Conditions
12:35 AM 57.0 °F 32.9 °F 40% 29.96 in 10.0 mi South 9.2 mph - N/A   Clear
12:55 AM 56.7 °F 33.3 °F 41% 29.96 in 10.0 mi South 9.2 mph - N/A   Scattered Clouds
1:14 AM 55.9 °F 33.8 °F 43% 29.96 in 10.0 mi South 9.2 mph - N/A   Scattered Clouds
1:35 AM 56.3 °F 34.2 °F 43% 29.96 in 10.0 mi South 9.2 mph - N/A   Scattered Clouds
1:55 AM 57.2 °F 33.8 °F 41% 29.95 in 10.0 mi South 11.5 mph 18.4 mph N/A   Clear
2:14 AM 57.7 °F 33.4 °F 40% 29.93 in 10.0 mi South 15.0 mph 21.9 mph N/A   Scattered Clouds
2:35 AM 58.3 °F 32.9 °F 38% 29.93 in 10.0 mi South 11.5 mph - N/A   Mostly Cloudy
2:55 AM 58.5 °F 32.9 °F 38% 29.93 in 10.0 mi South 11.5 mph 19.6 mph N/A   Overcast
3:14 AM 58.3 °F 33.4 °F 39% 29.92 in 10.0 mi South 11.5 mph 17.3 mph N/A   Overcast
3:35 AM 57.9 °F 34.7 °F 42% 29.92 in 10.0 mi South 12.7 mph 20.7 mph N/A Rain Light Rain
3:54 AM 57.9 °F 34.9 °F 42% 29.91 in 10.0 mi South 13.8 mph 19.6 mph N/A Rain Rain
4:15 AM 57.0 °F 36.1 °F 46% 29.90 in 10.0 mi South 11.5 mph 17.3 mph N/A   Overcast
4:35 AM 57.7 °F 35.1 °F 43% 29.89 in 10.0 mi South 11.5 mph 20.7 mph N/A   Overcast
4:54 AM 57.9 °F 34.9 °F 42% 29.88 in 10.0 mi South 13.8 mph 20.7 mph N/A   Overcast
5:15 AM 57.7 °F 34.9 °F 42% 29.87 in 10.0 mi South 10.4 mph 24.2 mph N/A   Mostly Cloudy
5:35 AM 57.2 °F 35.6 °F 44% 29.87 in 10.0 mi South 11.5 mph 16.1 mph N/A   Scattered Clouds
6:15 AM 55.0 °F 39.7 °F 56% 29.87 in 10.0 mi SSW 5.8 mph - N/A Rain Light Rain
6:35 AM 55.8 °F 39.0 °F 53% 29.87 in 10.0 mi SSW 6.9 mph - N/A   Mostly Cloudy
6:55 AM 55.8 °F 38.7 °F 53% 29.87 in 10.0 mi South 6.9 mph - N/A   Overcast
7:15 AM 55.6 °F 38.7 °F 53% 29.87 in 10.0 mi South 5.8 mph - N/A   Mostly Cloudy
7:34 AM 55.8 °F 38.5 °F 52% 29.87 in 10.0 mi SSW 8.1 mph - N/A   Overcast
7:55 AM 55.8 °F 38.3 °F 52% 29.87 in 10.0 mi South 8.1 mph - N/A   Mostly Cloudy
8:15 AM 55.6 °F 38.5 °F 53% 29.87 in 10.0 mi South 8.1 mph - N/A   Mostly Cloudy
8:34 AM 55.8 °F 39.2 °F 54% 29.87 in 10.0 mi South 8.1 mph - N/A   Scattered Clouds
8:55 AM 56.3 °F 39.4 °F 53% 29.87 in 10.0 mi SSW 10.4 mph - N/A   Clear
9:15 AM 56.8 °F 39.6 °F 52% 29.87 in 10.0 mi SSW 11.5 mph 16.1 mph N/A   Clear
9:34 AM 57.2 °F 39.9 °F 52% 29.87 in 10.0 mi South 10.4 mph 17.3 mph N/A   Clear
9:55 AM 58.1 °F 40.8 °F 53% 29.88 in 10.0 mi SSW 8.1 mph 17.3 mph N/A   Scattered Clouds
10:15 AM 59.4 °F 41.9 °F 52% 29.87 in 10.0 mi SSW 10.4 mph - N/A   Scattered Clouds
10:34 AM 60.8 °F 42.1 °F 50% 29.87 in 10.0 mi SW 13.8 mph 19.6 mph N/A   Clear
10:55 AM 62.8 °F 43.5 °F 49% 29.87 in 10.0 mi WSW 10.4 mph - N/A   Clear
11:15 AM 63.3 °F 43.9 °F 49% 29.87 in 10.0 mi SW 8.1 mph - N/A   Clear
11:35 AM 65.7 °F 44.6 °F 47% 29.87 in 10.0 mi WSW 10.4 mph 16.1 mph N/A   Clear
11:55 AM 66.2 °F 44.6 °F 46% 29.86 in 10.0 mi WSW 10.4 mph - N/A   Clear
12:14 PM 66.6 °F 44.4 °F 45% 29.86 in 10.0 mi WSW 6.9 mph - N/A   Scattered Clouds
12:35 PM 68.5 °F 44.2 °F 42% 29.86 in 10.0 mi SW 9.2 mph - N/A   Scattered Clouds
12:55 PM 68.7 °F 44.6 °F 42% 29.85 in 10.0 mi SW 5.8 mph - N/A   Mostly Cloudy
1:14 PM 69.4 °F 43.2 °F 39% 29.85 in 10.0 mi WSW 9.2 mph 16.1 mph N/A   Mostly Cloudy
1:35 PM 69.4 °F 40.1 °F 34% 29.85 in 10.0 mi WSW 11.5 mph 17.3 mph N/A   Mostly Cloudy
1:55 PM 71.8 °F 39.2 °F 31% 29.85 in 10.0 mi West 11.5 mph 20.7 mph N/A   Mostly Cloudy
2:14 PM 69.1 °F 40.5 °F 35% 29.85 in 10.0 mi West 16.1 mph 19.6 mph N/A   Scattered Clouds
2:35 PM 71.4 °F 39.0 °F 31% 29.84 in 10.0 mi West 12.7 mph - N/A   Scattered Clouds
2:55 PM 72.5 °F 35.1 °F 25% 29.84 in 10.0 mi WSW 15.0 mph 21.9 mph N/A   Clear
3:14 PM 72.3 °F 34.2 °F 25% 29.84 in 10.0 mi WSW 13.8 mph 23.0 mph N/A   Scattered Clouds
3:35 PM 71.1 °F 35.1 °F 27% 29.84 in 10.0 mi SW 11.5 mph 17.3 mph N/A   Scattered Clouds
3:55 PM 70.7 °F 38.5 °F 31% 29.84 in 10.0 mi West 9.2 mph - N/A   Scattered Clouds
4:14 PM 72.1 °F 37.6 °F 28% 29.84 in 10.0 mi WSW 13.8 mph 24.2 mph N/A   Clear
4:35 PM 70.9 °F 37.9 °F 30% 29.84 in 10.0 mi WSW 11.5 mph - N/A   Clear
4:54 PM 69.6 °F 38.3 °F 32% 29.84 in 10.0 mi WSW 10.4 mph - N/A   Mostly Cloudy
5:15 PM 69.8 °F 38.3 °F 32% 29.84 in 10.0 mi WSW 10.4 mph - N/A   Scattered Clouds
5:35 PM 69.3 °F 35.8 °F 29% 29.84 in 10.0 mi West 10.4 mph 19.6 mph N/A   Scattered Clouds
5:54 PM 68.0 °F 34.9 °F 29% 29.85 in 10.0 mi West 15.0 mph 21.9 mph N/A   Scattered Clouds
6:15 PM 66.4 °F 36.3 °F 33% 29.87 in 10.0 mi West 13.8 mph - N/A   Scattered Clouds
6:35 PM 65.7 °F 36.9 °F 35% 29.88 in 10.0 mi West 10.4 mph - N/A   Scattered Clouds
6:54 PM 64.6 °F 37.0 °F 36% 29.88 in 10.0 mi WNW 10.4 mph - N/A   Clear
7:15 PM 62.8 °F 34.9 °F 35% 29.89 in 10.0 mi West 9.2 mph - N/A   Clear
7:35 PM 62.2 °F 34.9 °F 36% 29.89 in 10.0 mi West 6.9 mph - N/A   Clear
7:54 PM 60.8 °F 36.3 °F 40% 29.89 in 10.0 mi WSW 4.6 mph - N/A   Clear
8:15 PM 59.9 °F 37.0 °F 43% 29.90 in 10.0 mi WSW 3.5 mph - N/A   Clear
8:35 PM 58.6 °F 36.9 °F 44% 29.90 in 10.0 mi WSW 3.5 mph - N/A   Clear
8:54 PM 59.0 °F 36.5 °F 43% 29.90 in 10.0 mi West 3.5 mph - N/A   Clear
9:15 PM 58.3 °F 36.3 °F 44% 29.90 in 10.0 mi Calm Calm - N/A   Clear
9:35 PM 58.1 °F 36.7 °F 45% 29.90 in 10.0 mi Calm Calm - N/A   Clear
9:55 PM 57.2 °F 37.8 °F 48% 29.90 in 10.0 mi South 3.5 mph - N/A   Clear
10:15 PM 55.0 °F 38.1 °F 53% 29.90 in 10.0 mi Calm Calm - N/A   Clear
10:34 PM 52.9 °F 39.0 °F 59% 29.89 in 10.0 mi Calm Calm - N/A   Clear
10:55 PM 53.1 °F 38.8 °F 59% 29.89 in 10.0 mi Calm Calm - N/A   Clear
11:15 PM 53.8 °F 38.5 °F 56% 29.89 in 10.0 mi South 3.5 mph - N/A   Clear
11:34 PM 50.0 °F 38.3 °F 64% 29.89 in 10.0 mi Calm Calm - N/A   Clear
11:55 PM 51.8 °F 39.2 °F 62% 29.89 in 10.0 mi Calm Calm - N/A   Clear